Wind_Speed
46 47 47 48 48 49 49 50 49 48 47 48 50 52 54 56 58 60 62 64 66 68 70 72 73 74 75 76 77 78 79 79 80 80 81 81 81 81
47 48 48 49 50 50 51 51 52 52 51 52 55 57 59 61 63 65 67 68 70 72 73 73 74 75 76 77 78 78 78 79 79 79 79 80 81 82
47 48 49 50 51 52 52 53 54 55 56 56 59 61 63 65 67 69 70 72 73 73 73 73 74 75 76 75 75 74 74 74 75 75 75 76 77 78
48 49 50 51 52 53 54 55 57 59 61 61 62 64 66 68 69 70 72 72 72 72 73 74 74 73 72 71 70 70 69 68 68 68 68 68 69 70
49 51 52 53 54 55 57 58 60 62 64 65 66 67 69 70 71 72 72 72 72 72 73 72 71 70 69 68 67 65 64 63 63 62 62 61 62 62
51 52 53 55 56 58 59 61 63 65 66 68 69 69 70 71 72 72 71 71 71 72 72 70 69 67 65 64 63 61 60 58 57 56 55 54 54 53
52 53 55 57 58 60 63 64 66 67 68 70 70 70 70 72 72 72 71 70 70 70 69 67 65 63 61 59 58 56 55 53 50 48 47 45 44 44
53 55 57 59 61 63 65 67 68 70 71 71 71 72 72 72 71 71 70 69 67 66 64 61 59 57 56 54 52 50 48 45 43 41 39 37 36 35
54 56 59 61 63 65 67 68 69 71 71 72 72 72 72 71 71 69 68 66 64 61 58 54 53 51 49 47 45 43 40 38 37 34 32 31 29 28
56 58 60 63 65 67 68 69 70 70 71 72 72 72 71 71 69 66 64 61 58 55 53 50 47 44 42 41 39 37 35 33 31 29 28 26 25 24
57 60 62 64 67 69 70 70 69 69 71 71 71 70 69 67 65 62 59 56 52 49 47 44 41 38 36 36 35 32 30 28 26 25 24 23 22 21
59 62 64 66 68 69 70 70 70 70 69 69 67 66 65 63 61 59 55 50 46 42 40 39 36 34 31 31 30 28 26 24 23 21 20 19 18 17
61 63 66 68 69 70 71 71 70 69 67 66 64 63 61 59 57 53 48 44 41 38 36 34 32 30 28 26 26 25 22 21 19 18 17 16 15 14
63 66 67 68 70 71 71 70 68 67 65 63 62 60 57 54 50 45 42 40 38 35 33 31 28 26 25 23 22 21 18 17 16 15 14 14 13 12
65 67 68 69 70 69 68 66 65 64 62 61 58 55 52 48 43 40 38 36 34 32 30 27 25 23 22 21 19 17 15 14 13 13 12 12 11 10
66 67 68 68 67 66 64 63 62 61 59 57 54 50 46 42 38 36 34 32 30 28 26 23 22 20 20 18 16 14 13 12 12 11 11 10 9 9
66 67 67 66 65 63 61 60 59 57 54 51 48 44 40 37 34 31 30 28 26 25 22 21 19 18 17 16 14 12 12 11 11 10 9 9 8 8
67 67 66 64 62 59 57 56 54 51 48 46 43 39 35 32 29 27 25 24 22 20 19 19 18 16 15 14 12 11 11 10 9 9 8 7 7 6
66 65 63 60 58 55 54 52 49 46 44 41 38 34 30 27 25 23 21 20 19 18 17 16 15 14 13 12 11 10 10 9 8 8 7 7 6 6
64 62 59 56 54 52 50 47 44 42 39 36 33 29 26 23 21 19 18 17 16 15 15 14 13 13 12 11 10 9 9 8 8 7 7 6 6 5
61 58 55 53 51 48 45 42 40 38 35 32 28 25 22 20 18 17 16 15 15 14 13 12 12 12 11 10 9 8 8 8 7 7 6 6 6 5
58 55 52 50 47 44 41 38 36 34 31 28 25 22 19 17 17 16 15 14 13 12 11 11 11 11 10 9 8 8 7 7 7 6 6 5 5 5
54 52 49 45 42 39 37 34 32 30 27 24 21 19 17 17 16 15 14 13 12 11 11 11 11 10 9 9 8 8 7 7 6 5 5 4 4 3
Wind_Direction
300 301 301 302 302 302 302 301 300 299 298 298 298 297 297 297 296 295 295 294 294 293 293 292 291 290 289 288 287 285 283 281 279 277 275 273 271 269
300 301 301 302 302 302 302 301 301 300 299 299 299 298 298 297 297 297 296 296 295 295 294 294 293 292 291 290 289 287 285 283 280 278 276 273 271 269
300 301 302 302 302 302 302 302 302 301 300 300 300 299 299 299 299 299 298 298 297 297 296 296 295 294 293 291 290 288 286 284 282 280 277 275 273 270
300 301 301 302 302 302 302 302 302 302 301 301 300 300 300 299 299 299 299 298 298 298 298 297 296 295 294 292 291 289 287 286 283 281 279 277 275 272
300 301 301 302 302 303 303 303 303 302 302 301 301 300 300 300 300 300 299 299 299 299 299 298 297 296 295 293 292 291 289 287 285 283 281 279 276 273
301 302 302 302 303 303 303 303 303 302 302 302 301 301 300 300 301 300 299 300 300 300 299 298 297 296 295 294 293 292 290 289 287 285 283 281 278 275
302 302 303 303 304 304 304 304 303 303 302 302 302 302 302 302 302 301 300 300 300 299 298 298 297 296 296 295 294 293 291 290 289 287 286 283 280 276
303 303 304 304 304 305 305 305 304 304 303 302 302 303 303 303 302 301 301 300 300 299 298 297 297 297 296 296 295 294 293 292 290 289 287 284 281 278
304 305 305 305 305 306 305 305 305 304 304 303 304 304 304 303 302 302 302 302 302 300 298 297 297 297 297 296 295 295 294 292 291 289 286 284 282 279
305 306 306 306 307 306 306 305 305 305 304 304 304 304 304 304 304 303 303 303 302 301 299 299 298 298 298 297 296 295 294 293 291 288 286 284 282 280
306 307 307 307 307 307 306 306 306 305 304 305 305 305 305 305 304 304 304 303 303 301 300 300 300 300 299 297 297 297 296 294 291 289 286 284 281 280
307 308 308 308 308 307 307 307 306 306 305 305 305 305 305 305 304 304 304 304 304 302 301 302 302 301 300 298 297 298 297 296 293 291 288 285 281 279
309 309 309 309 309 308 307 307 307 306 306 306 306 306 306 305 304 303 303 304 304 303 302 302 302 303 302 299 297 298 298 297 295 292 289 285 281 277
310 310 310 309 309 309 308 307 307 307 307 307 307 307 306 305 304 303 302 304 304 303 302 303 303 302 301 300 299 298 298 298 298 295 291 287 282 276
311 311 311 310 310 310 309 308 308 308 308 308 308 308 307 305 303 302 302 303 302 302 303 303 302 302 301 301 300 298 298 299 298 296 295 290 282 276
312 312 312 311 311 311 310 310 310 310 309 309 309 308 307 305 302 301 301 302 302 302 302 302 302 301 302 302 299 297 298 299 298 297 295 293 286 280
313 313 312 312 312 311 311 311 311 311 311 310 310 309 307 305 303 301 301 301 301 301 301 302 303 302 302 301 297 296 296 297 298 297 296 295 293 286
314 313 313 313 313 312 312 312 312 312 312 312 311 310 308 306 304 302 302 301 301 301 300 302 303 303 301 298 296 295 296 295 295 295 297 299 298 291
315 314 314 314 314 313 313 314 314 314 314 314 312 310 308 307 305 304 303 301 301 301 300 302 303 303 301 297 295 293 292 291 290 292 295 298 299 295
316 315 315 315 314 314 314 314 315 315 315 315 313 311 309 307 305 304 304 302 302 301 300 301 303 304 304 301 297 292 289 288 289 291 291 293 294 292
317 316 316 315 315 315 315 315 315 316 316 315 314 311 309 307 306 305 304 303 302 301 300 300 301 303 303 302 299 295 290 287 287 290 291 291 289 285
317 316 316 316 315 315 315 315 316 316 316 315 314 312 309 306 305 305 304 303 302 301 299 299 300 301 300 299 299 297 294 290 286 287 287 286 285 283
317 316 316 316 316 316 315 315 316 316 316 315 313 311 308 307 305 304 303 302 301 300 298 299 300 300 297 295 295 294 295 293 289 284 279 277 276 273
Height
5687 5682 5677 5672 5667 5662 5657 5652 5648 5644 5641 5634 5627 5621 5615 5609 5603 5598 5592 5585 5579 5573 5566 5560 5553 5547 5541 5535 5529 5524 5519 5515 5512 5509 5507 5506 5506 5506
5677 5672 5667 5662 5657 5651 5646 5640 5635 5630 5627 5622 5615 5607 5600 5594 5587 5580 5574 5567 5560 5552 5545 5538 5531 5524 5517 5510 5504 5498 5493 5488 5484 5482 5480 5478 5477 5477
5667 5662 5657 5651 5645 5640 5634 5628 5622 5616 5612 5608 5600 5592 5584 5577 5569 5562 5554 5546 5539 5531 5523 5516 5508 5501 5493 5486 5480 5473 5468 5463 5459 5455 5452 5450 5449 5449
5656 5651 5645 5640 5634 5628 5621 5615 5609 5602 5596 5591 5585 5576 5568 5559 5551 5543 5535 5526 5519 5511 5503 5495 5486 5478 5471 5464 5457 5451 5445 5440 5435 5431 5428 5426 5424 5422
5646 5640 5634 5628 5622 5615 5608 5601 5594 5587 5579 5573 5567 5559 5550 5541 5533 5524 5516 5507 5499 5491 5482 5474 5465 5457 5450 5442 5436 5430 5424 5419 5414 5410 5406 5403 5401 5399
5634 5628 5622 5615 5608 5601 5594 5587 5579 5571 5563 5555 5548 5540 5531 5522 5513 5505 5498 5489 5480 5471 5462 5453 5446 5438 5430 5423 5417 5411 5405 5399 5395 5390 5386 5383 5381 5379
5622 5616 5609 5601 5594 5587 5579 5571 5562 5554 5545 5537 5529 5521 5513 5503 5494 5485 5478 5471 5463 5452 5444 5435 5427 5420 5412 5405 5399 5393 5387 5382 5378 5374 5370 5367 5364 5362
5610 5603 5596 5588 5580 5572 5563 5554 5545 5535 5527 5518 5510 5502 5493 5483 5474 5465 5457 5451 5445 5437 5426 5420 5410 5404 5396 5389 5383 5377 5372 5368 5364 5360 5357 5354 5352 5350
5597 5590 5582 5573 5565 5556 5547 5538 5528 5517 5507 5498 5491 5482 5473 5464 5455 5448 5439 5431 5424 5416 5408 5404 5396 5389 5382 5375 5369 5364 5360 5356 5352 5349 5346 5344 5342 5341
5584 5576 5568 5559 5549 5540 5532 5523 5512 5502 5491 5481 5472 5463 5453 5444 5435 5428 5420 5414 5407 5399 5391 5387 5382 5376 5370 5363 5358 5353 5350 5346 5343 5340 5338 5336 5334 5333
5571 5562 5553 5544 5534 5524 5515 5506 5497 5486 5475 5464 5454 5444 5435 5426 5417 5410 5404 5397 5392 5386 5378 5373 5369 5364 5359 5353 5348 5344 5341 5338 5335 5333 5331 5329 5328 5326
5558 5548 5538 5528 5518 5507 5496 5487 5479 5469 5459 5449 5438 5428 5419 5410 5402 5395 5388 5383 5377 5373 5367 5362 5358 5353 5351 5345 5340 5337 5334 5331 5329 5327 5325 5323 5322 5321
5543 5533 5523 5512 5501 5490 5479 5469 5460 5450 5442 5432 5423 5414 5405 5396 5388 5381 5375 5370 5366 5361 5357 5353 5349 5345 5341 5338 5334 5331 5328 5325 5323 5321 5319 5318 5317 5316
5528 5518 5507 5496 5485 5474 5463 5452 5442 5433 5424 5416 5407 5398 5390 5382 5375 5369 5364 5360 5355 5352 5348 5344 5341 5338 5334 5331 5328 5326 5323 5321 5319 5317 5315 5314 5313 5312
5512 5502 5491 5480 5469 5458 5447 5436 5426 5417 5408 5400 5392 5384 5376 5369 5364 5359 5355 5351 5347 5343 5340 5337 5334 5331 5329 5326 5323 5321 5319 5317 5315 5314 5312 5311 5310 5309
5496 5486 5475 5464 5453 5442 5432 5421 5412 5402 5394 5386 5378 5370 5364 5358 5353 5349 5346 5342 5339 5336 5333 5330 5328 5326 5323 5321 5319 5317 5316 5314 5313 5311 5310 5309 5308 5307
5481 5471 5460 5449 5438 5428 5417 5408 5398 5389 5380 5372 5365 5359 5353 5348 5344 5341 5338 5335 5332 5329 5327 5325 5323 5321 5319 5317 5315 5314 5313 5311 5310 5309 5307 5306 5305 5305
5465 5454 5444 5433 5423 5413 5404 5395 5386 5377 5369 5361 5355 5349 5344 5340 5336 5333 5331 5328 5326 5324 5322 5320 5318 5317 5315 5313 5312 5311 5310 5309 5308 5306 5305 5304 5304 5303
5449 5438 5428 5418 5409 5400 5391 5382 5374 5366 5359 5352 5345 5340 5336 5332 5329 5327 5325 5323 5321 5319 5318 5316 5315 5313 5312 5310 5309 5308 5307 5306 5305 5305 5304 5303 5302 5301
5434 5423 5413 5404 5395 5387 5379 5371 5364 5357 5350 5343 5338 5333 5330 5327 5324 5322 5320 5319 5317 5316 5314 5313 5311 5310 5308 5308 5306 5306 5305 5304 5303 5303 5302 5301 5301 5300
5420 5410 5400 5392 5384 5376 5368 5361 5355 5348 5342 5337 5332 5328 5325 5322 5320 5318 5316 5315 5314 5312 5311 5310 5309 5307 5306 5305 5304 5303 5303 5302 5301 5301 5300 5300 5300 5299
5407 5397 5389 5380 5373 5366 5359 5352 5346 5341 5336 5331 5327 5324 5321 5319 5317 5315 5313 5312 5310 5309 5308 5307 5306 5305 5304 5303 5302 5301 5301 5300 5300 5299 5299 5299 5298 5298
5394 5386 5377 5370 5363 5356 5350 5345 5339 5334 5330 5326 5323 5320 5317 5315 5313 5311 5310 5309 5308 5306 5305 5305 5304 5303 5302 5301 5300 5300 5299 5299 5298 5298 5298 5298 5297 5297